www.pogodaiklimat.ru

Погода и климат >> Архив погоды >> Франция >> Йер


ПОГОДА в Йере

  • Прогноз погоды в Йере
  • Монитор погоды в Йере

АРХИВ ПОГОДЫ в Йере

Время (UTC), дата Ветер
(напр.,м/с)
 
Видим.   Явления Облачность Т
(С)
Тd
(С)
f
(%)
Тe
(С)
Тes
(С)
Комфортность P
(гПа)
Po
(гПа)
Тmin
(С)
Tmax
(С)
R
(мм)
R24
(мм)
S
(см)
22 14.08 СВ 1-1
{1}
60 км н/о +18.0 +11.8 67 +20 +20 1015.2 1014.7
23 14.08 С 1-1
{1}
55 км н/о +16.8 +11.9 73 +18 +18 1015.2 1014.7
00 15.08 штиль 0-1
{2}
55 км н/о +15.9 +11.7 76 +16 +16 1015.2 1014.7
01 15.08 С 1-1
{2}
60 км н/о +16.0 +11.0 72 +17 +17 1015.2 1014.7
02 15.08 С 1-2
{2}
60 км н/о +17.0 +9.7 62 +18 +18 1014.7 1014.2
03 15.08 СЗ 1-2
{3}
60 км н/о +19.1 +8.1 49 +21 +21 комфорт 1014.8 1014.3
04 15.08 СЗ 1-2
{2}
60 км н/о +17.8 +8.1 53 +19 +19 1015.0 1014.5
05 15.08 СВ 1-1
{5}
60 км н/о +17.2 +8.3 56 +19 +19 1015.3 1014.8
06 15.08 СВ 1
{2}
55 км н/о +19.7 +10.4 55 +22 +22 комфорт 1015.8 1015.3 +14.8 +25.9
07 15.08 СЗ 1-2
{2}
55 км н/о +25.4 +8.8 35 +26 +26 жарко 1016.2 1015.7
08 15.08 СЗ 1-1
{2}
17 км н/о +27.7 +8.0 29 +27 +27 жарко 1016.0 1015.5
09 15.08 ЮЗ 3-4
{4}
19 км н/о +26.1 +13.2 45 +28 +28 жарко 1016.0 1015.5
10 15.08 ЮЗ 3-5
{5}
60 км н/о +28.5 +12.8 38 +30 +30 жарко 1015.8 1015.3
11 15.08 З 4-6
{6}
60 км н/о +29.4 +12.8 36 +31 +31 жарко 1015.4 1014.9
12 15.08 З 6-8
{8}
50 км н/о +28.9 +13.9 40 +31 +31 жарко 1014.7 1014.2
13 15.08 З 5-7
{8}
35 км н/о +29.3 +14.3 40 +31 +31 жарко 1014.4 1013.9
14 15.08 З 6-7
{8}
30 км н/о +30.0 +16.1 43 +33 +33 душно 1013.8 1013.3
15 15.08 З 5-8
{8}
24 км н/о +29.5 +15.2 42 +32 +32 душно 1013.6 1013.1
16 15.08 З 6-8
{8}
30 км н/о +28.1 +14.0 42 +30 +30 жарко 1013.2 1012.7
17 15.08 З 5-7
{8}
30 км н/о +28.2 +12.9 39 +30 +30 жарко 1012.9 1012.4
18 15.08 З 4
{16}
40 км н/о +26.2 +15.3 51 +29 +29 жарко 1013.4 1012.9 +19.7 +30.0
19 15.08 З 4-5
{6}
60 км н/о +25.8 +14.0 48 +28 +28 жарко 1013.6 1013.1
20 15.08 З 4-5
{6}
60 км н/о +26.2 +13.0 44 +28 +28 жарко 1014.3 1013.8
21 15.08 СЗ 2-3
{5}
60 км н/о +26.0 +12.8 44 +28 +28 жарко 1014.1 1013.6
22 15.08 ЮЗ 1-2
{3}
60 км н/о +24.2 +12.8 49 +26 +26 жарко 1014.3 1013.8
23 15.08 З 2-3
{3}
60 км н/о +22.3 +14.2 60 +26 +26 жарко 1014.3 1013.8
00 16.08 СЗ 2-3
{3}
60 км н/о +20.9 +12.6 59 +24 +24 комфорт 1013.9 1013.4
01 16.08 ЮЗ 1-2
{3}
60 км н/о +22.5 +12.4 53 +25 +25 комфорт 1014.1 1013.6
02 16.08 СЗ 2-4
{4}
60 км н/о +23.6 +9.6 41 +25 +25 комфорт 1013.9 1013.4
03 16.08 С 1-2
{3}
60 км н/о +21.4 +9.3 46 +23 +23 комфорт 1014.1 1013.6
04 16.08 С 1-2
{3}
60 км н/о +21.7 +8.9 44 +23 +23 комфорт 1014.4 1013.9
05 16.08 С 2-3
{3}
55 км н/о +21.0 +8.9 46 +23 +23 комфорт 1014.7 1014.2
06 16.08 С 2
{6}
60 км н/о +22.4 +9.2 43 +24 +24 комфорт 1015.2 1014.7 +19.5 +27.1
07 16.08 С 2-3
{4}
60 км н/о +25.3 +10.0 38 +26 +26 жарко 1015.9 1015.4
08 16.08 С 1-2
{3}
19 км н/о +27.0 +16.6 53 +31 +31 душно 1016.1 1015.6
09 16.08 ЮВ 2-3
{3}
55 км н/о +27.2 +19.0 61 +32 +32 очень
душно
1016.6 1016.1
10 16.08 Ю 2-3
{3}
19 км н/о +27.1 +18.1 58 +32 +32 очень
душно
1016.3 1015.8
11 16.08 Ю 2-4
{4}
19 км н/о +28.2 +17.7 53 +33 +33 очень
душно
1016.2 1015.7
12 16.08 Ю 2-4
{4}
60 км н/о +27.6 +16.6 51 +31 +31 душно 1016.0 1015.5
13 16.08 ЮЗ 3-4
{4}
19 км н/о +27.9 +18.6 57 +33 +33 очень
душно
1015.9 1015.4
14 16.08 ЮЗ 2-3
{4}
19 км н/о +28.0 +18.1 55 +33 +33 очень
душно
1015.4 1014.9
15 16.08 ЮЗ 2-3
{4}
19 км н/о +27.8 +17.6 54 +32 +32 душно 1015.3 1014.8
16 16.08 ЮЗ 3-4
{4}
30 км н/о +27.7 +16.0 49 +31 +31 душно 1015.2 1014.7
17 16.08 ЮЗ 2-3
{3}
55 км н/о +27.6 +15.3 47 +30 +30 жарко 1014.7 1014.2
18 16.08 ЮЗ 2
{5}
60 км н/о +26.4 +15.7 52 +30 +30 душно 1014.8 1014.3 +22.5 +28.7
19 16.08 Ю 1-2
{2}
3600 м дымка н/о +24.6 +18.5 69 +29 +29 душно 1015.2 1014.7
20 16.08 Ю 1-1
{1}
55 км н/о +23.8 +16.3 63 +27 +27 жарко 1015.9 1015.4 0.0
21 16.08 штиль 0-1
{2}
60 км н/о +22.9 +13.4 55 +26 +26 жарко 1016.2 1015.7 0.0
22 16.08 СВ 1-1
{2}
60 км н/о +20.3 +13.0 63 +24 +24 комфорт 1016.5 1016.0
23 16.08 СВ 1-1
{1}
60 км н/о +19.9 +14.0 69 +23 +23 комфорт 1016.6 1016.1
00 17.08 С 1-1
{1}
55 км н/о +18.6 +14.1 75 +21 +21 комфорт 1016.6 1016.1
01 17.08 С 1-1
{1}
55 км н/о +17.4 +13.9 80 +19 +19 1016.1 1015.6
02 17.08 штиль 0-1
{1}
55 км н/о +17.2 +13.5 79 +17 +17 1015.9 1015.4
03 17.08 С 1-2
{2}
60 км н/о +18.2 +13.5 74 +20 +20 1016.2 1015.7
04 17.08 СЗ 1-2
{2}
60 км н/о +17.0 +12.9 77 +18 +18 1016.1 1015.6
05 17.08 СЗ 1-1
{2}
60 км н/о +17.8 +12.5 71 +19 +19 1016.4 1015.9
06 17.08 СЗ 1
{2}
60 км н/о +20.4 +14.3 68 +24 +24 комфорт 1016.6 1016.1 +16.4 +26.4
07 17.08 СЗ 1-1
{2}
50 км н/о +24.0 +14.7 56 +27 +27 жарко 1016.9 1016.4
08 17.08 Ю 1-2
{2}
55 км н/о +24.7 +17.2 63 +29 +29 душно 1017.1 1016.6
09 17.08 Ю 2-3
{3}
19 км н/о +25.1 +18.3 66 +30 +30 душно 1017.4 1016.9
10 17.08 Ю 2-3
{3}
19 км н/о +26.5 +18.1 60 +31 +31 душно 1017.6 1017.1
11 17.08 ЮЗ 3-4
{4}
55 км н/о +25.3 +20.3 74 +31 +31 очень
душно
1017.6 1017.1
12 17.08 ЮЗ 3-4
{4}
50 км н/о +26.1 +20.7 72 +33 +33 очень
душно
1017.2 1016.7
13 17.08 ЮЗ 3-4
{4}
45 км н/о +26.5 +20.6 70 +33 +33 очень
душно
1016.8 1016.3
14 17.08 ЮЗ 2-3
{4}
40 км н/о +26.1 +21.5 76 +33 +33 очень
душно
1016.5 1016.0
15 17.08 ЮЗ 2-4
{4}
19 км н/о +26.3 +21.9 77 +34 +34 очень
душно
1016.1 1015.6
16 17.08 ЮЗ 3 23 км н/о +26.6 +22.0 76 +34 +34 очень
душно
1015.9 1015.4
17 17.08 ЮЗ 3 30 км н/о +25.6 +22.1 81 +33 +33 очень
душно
1015.6 1015.1
18 17.08 ЮЗ 2
{8}
45 км н/о +24.7 +22.2 86 +32 +32 очень
душно
1015.6 1015.1 +20.5 +27.0
19 17.08 ЮЗ 1-2
{4}
27 км н/о +23.8 +22.1 90 +31 +31 очень
душно
1015.6 1015.1
20 17.08 ЮЗ 2-3
{3}
23 км н/о +23.6 +21.7 89 +30 +30 очень
душно
1016.1 1015.6
21 17.08 ЮЗ 2-2
{3}
18 км н/о +23.3 +21.7 91 +32 +32 очень
душно
1016.1 1015.6
22 17.08 СВ 1-1
{2}
11 км н/о +21.6 +19.9 90 +27 +27 душно 1016.1 1015.6
23 17.08 СЗ 1-1
{1}
10 км 9/9 300 м
[]
+21.3 +20.1 93 +26 +26 душно 1016.2 1015.7
00 18.08 СЗ 1-2
{2}
11 км н/о +21.2 +19.8 92 +26 +26 душно 1016.2 1015.7
01 18.08 С 1-1
{2}
15 км н/о +20.3 +18.6 90 +25 +25 комфорт 1015.7 1015.2
02 18.08 СЗ 1-1
{1}
15 км н/о +20.2 +18.9 92 +25 +25 комфорт 1015.6 1015.1
03 18.08 С 1-1
{2}
11 км н/о +19.0 +17.8 93 +22 +22 комфорт 1015.4 1014.9
04 18.08 С 1-1
{1}
19 км н/о +18.7 +17.2 91 +21 +21 комфорт 1015.3 1014.8
05 18.08 С 1-1
{1}
16 км н/о +18.8 +17.1 90 +22 +22 комфорт 1015.4 1014.9 0.2
06 18.08 С 1
{2}
13 км н/о +20.7 +19.2 91 +26 +26 душно 1015.6 1015.1 +18.5 +24.7 0.2
07 18.08 С 1-1
{1}
19 км н/о +23.2 +20.2 83 +30 +30 очень
душно
1015.7 1015.2
08 18.08 В 1 19 км 9/9 500 м
[]
+26.0 +20.6 72 +32 +33 очень
душно
1015.9 1015.4
09 18.08 ЮВ 2-2
{3}
19 км н/о +26.7 +21.0 71 +34 +34 очень
душно
1016.1 1015.6
10 18.08 ЮВ 2-3
{3}
55 км н/о +26.9 +21.0 70 +34 +34 очень
душно
1016.4 1015.9
11 18.08 ЮВ 3-4
{4}
55 км н/о +27.1 +20.9 69 +34 +34 очень
душно
1016.2 1015.7
12 18.08 ЮВ 3-4
{4}
19 км н/о +27.0 +20.8 69 +34 +34 очень
душно
1016.0 1015.5
13 18.08 ЮВ 3-4
{4}
19 км н/о +27.3 +21.1 69 +34 +34 очень
душно
1015.8 1015.3
14 18.08 ЮВ 3-4
{4}
30 км н/о +27.3 +20.9 68 +34 +34 очень
душно
1015.6 1015.1
15 18.08 В 3-4
{4}
30 км н/о +27.4 +21.2 69 +35 +35 очень
душно
1015.2 1014.7
16 18.08 В 3-4
{5}
45 км н/о +26.8 +21.1 71 +34 +34 очень
душно
1015.2 1014.7
17 18.08 ЮВ 2-4
{4}
55 км н/о +26.0 +21.0 74 +33 +33 очень
душно
1014.8 1014.3
18 18.08 В 2
{6}
45 км н/о +25.1 +20.1 74 +31 +31 очень
душно
1014.7 1014.2 +20.7 +28.0
19 18.08 В 2-3
{3}
50 км н/о +24.3 +20.4 79 +30 +30 очень
душно
1014.8 1014.3
20 18.08 В 2-3
{3}
45 км н/о +23.9 +20.6 82 +30 +30 очень
душно
1015.2 1014.7
21 18.08 СВ 1-2
{3}
45 км н/о +23.9 +20.6 82 +30 +30 очень
душно
1015.9 1015.4
22 18.08 СВ 1-2
{2}
30 км н/о +21.5 +18.9 85 +26 +26 душно 1016.2 1015.7
23 18.08 С 1-2
{2}
35 км н/о +20.4 +18.2 87 +25 +25 комфорт 1016.3 1015.8
00 19.08 СВ 1-1
{2}
40 км н/о +20.6 +17.6 83 +26 +26 душно 1016.1 1015.6
01 19.08 С 1-1
{2}
30 км 9/9 540 м
[]
+20.7 +18.5 87 +26 +26 душно 1015.7 1015.2
02 19.08 С 1-1
{1}
29 км 8/8 600 м
[]
+21.0 +18.8 87 +27 +27 душно 1015.9 1015.4
03 19.08 С 1-1
{1}
19 км н/о +20.6 +18.4 87 +26 +26 душно 1015.5 1015.0
04 19.08 СЗ 2-2
{2}
26 км н/о +20.5 +18.4 88 +25 +25 комфорт 1015.6 1015.1
05 19.08 СЗ 1-2
{2}
23 км н/о +21.0 +18.9 88 +27 +27 душно 1015.8 1015.3
06 19.08 С 1
{2}
19 км н/о +22.6 +19.6 83 +29 +29 очень
душно
1015.9 1015.4 +20.0 +25.1
07 19.08 С 1-1
{2}
19 км н/о +24.6 +19.9 75 +30 +30 очень
душно
1016.3 1015.8
08 19.08 ЮВ 1-2
{2}
50 км н/о +26.5 +20.8 71 +33 +33 очень
душно
1016.3 1015.8
09 19.08 ЮВ 2-3
{3}
18 км н/о +26.8 +20.4 68 +33 +33 очень
душно
1016.7 1016.2
10 19.08 ЮВ 2-3
{3}
30 км н/о +28.1 +21.4 67 +36 +36 очень
душно
1016.8 1016.3
11 19.08 ЮВ 2-3
{3}
55 км н/о +27.9 +20.5 64 +35 +35 очень
душно
1016.7 1016.2
12 19.08 ЮВ 3-4
{4}
19 км н/о +28.0 +20.6 64 +35 +35 очень
душно
1016.8 1016.3
13 19.08 ЮЗ 2-3
{4}
55 км н/о +28.1 +21.1 66 +35 +35 очень
душно
1017.1 1016.6
14 19.08 ЮЗ 2-3
{4}
19 км н/о +27.3 +21.3 70 +35 +35 очень
душно
1017.0 1016.5
15 19.08 ЮЗ 2-4
{4}
19 км н/о +27.3 +21.3 70 +35 +35 очень
душно
1016.9 1016.4
16 19.08 ЮЗ 2-3
{4}
19 км 8/8
[]
+27.1 +21.6 72 +35 +35 очень
душно
1016.9 1016.4
17 19.08 ЮЗ 3-4
{4}
30 км н/о +25.4 +21.5 79 +32 +32 очень
душно
1016.8 1016.3
18 19.08 ЮЗ 2
{7}
50 км н/о +25.0 +21.5 81 +32 +32 очень
душно
1016.8 1016.3 +22.7 +28.8
19 19.08 З 2-2
{3}
30 км н/о +24.7 +21.6 83 +32 +32 очень
душно
1017.1 1016.6
20 19.08 Ю 1-1
{2}
28 км н/о +24.1 +21.0 83 +30 +30 очень
душно
1017.4 1016.9
21 19.08 З 1-1
{2}
19 км н/о +23.6 +20.5 83 +29 +29 душно 1017.8 1017.3
22 19.08 СВ 1 15 км н/о +22.0 +19.5 86 +28 +28 душно 1017.5 1017.0
23 19.08 штиль 0-1
{1}
15 км 10/10
[]
+21.6 +19.9 90 +27 +27 душно 1017.3 1016.8
00 20.08 С 1
{2}
13 км 10/0
[]
+21.7 +20.2 91 +27 +27 душно 1017.0 1016.5
01 20.08 С 1 15 км 10/10
[]
+21.5 +20.0 91 +27 +27 душно 1016.5 1016.0
02 20.08 штиль 0 17 км 10/10
[]
+21.5 +20.0 91 +27 +27 душно 1016.3 1015.8
03 20.08 З 1-1
{1}
19 км 10/0
[]
+22.6 +20.5 88 +29 +29 очень
душно
1016.3 1015.8
04 20.08 С 1-1
{2}
11 км н/о +21.3 +19.6 90 +26 +26 душно 1016.1 1015.6
05 20.08 С 1-1
{2}
17 км н/о +21.4 +19.7 90 +26 +26 душно 1016.4 1015.9
06 20.08 СВ 1
{2}
15 км 9/9 300 м
[]
+22.8 +20.5 87 +30 +30 очень
душно
1016.8 1016.3 +20.8 +25.0
07 20.08 С 1 19 км 9/4 360 м
[]
+25.0 +21.3 80 +32 +33 очень
душно
1017.2 1016.7
08 20.08 ЮВ 1 19 км 10/3 500 м
[]
+26.9 +21.2 71 +34 +37 очень
душно
1017.3 1016.8
09 20.08 В 2-2
{2}
55 км н/о +27.8 +20.6 65 +35 +35 очень
душно
1017.5 1017.0
10 20.08 ЮВ 2-3
{3}
30 км н/о +28.0 +21.5 68 +36 +36 очень
душно
1017.6 1017.1
11 20.08 Ю 2-3
{3}
25 км н/о +26.9 +21.9 74 +35 +35 очень
душно
1017.7 1017.2
12 20.08 Ю 2-3
{4}
19 км н/о +28.1 +21.9 69 +36 +36 очень
душно
1017.5 1017.0
13 20.08 ЮЗ 2-3
{4}
19 км н/о +28.0 +21.8 69 +36 +36 очень
душно
1017.6 1017.1
14 20.08 ЮЗ 3-4
{4}
19 км н/о +27.9 +20.5 64 +35 +35 очень
душно
1017.7 1017.2
15 20.08 ЮЗ 4-3
{6}
19 км н/о +29.2 +19.8 57 +35 +35 очень
душно
1016.9 1016.4
16 20.08 ЮЗ 5-3
{6}
40 км н/о +29.0 +18.7 54 +34 +34 очень
душно
1016.8 1016.3
17 20.08 ЮЗ 2-3
{7}
55 км 10/10
[]
+28.4 +18.5 55 +33 +34 очень
душно
1016.2 1015.7
18 20.08 ЮВ 1
{6}
55 км н/о +27.4 +17.6 55 +32 +32 очень
душно
1016.1 1015.6 +22.8 +29.5
19 20.08 С 1 45 км н/о +26.1 +18.5 63 +31 +31 очень
душно
1016.5 1016.0
20 20.08 С 2-2
{3}
55 км н/о +25.5 +16.4 57 +29 +29 душно 1017.0 1016.5
21 20.08 С 1-2
{2}
60 км н/о +24.6 +15.0 55 +27 +27 жарко 1016.9 1016.4
22 20.08 штиль 0-1
{2}
55 км н/о +23.4 +16.4 65 +28 +28 душно 1016.9 1016.4
23 20.08 СЗ 2-2
{2}
60 км н/о +22.4 +15.7 66 +26 +26 жарко 1016.6 1016.1
00 21.08 СЗ 1-2
{3}
60 км н/о +22.8 +14.9 61 +27 +27 душно 1016.5 1016.0
01 21.08 СЗ 1-2
{2}
60 км н/о +21.7 +14.8 65 +25 +25 комфорт 1016.3 1015.8
02 21.08 С 1-1
{1}
60 км н/о +21.0 +15.1 69 +26 +26 душно 1016.4 1015.9
03 21.08 СЗ 1-2
{2}
60 км н/о +21.0 +15.3 70 +25 +25 комфорт 1016.3 1015.8
04 21.08 СЗ 1-2
{2}
60 км 8/8 600 м
[]
+21.2 +15.5 70 +24 +24 комфорт 1016.3 1015.8
05 21.08 С 1-2
{2}
50 км н/о +21.1 +15.9 72 +24 +24 комфорт 1016.6 1016.1
06 21.08 СЗ 2
{4}
45 км н/о +22.8 +16.8 69 +28 +28 душно 1017.0 1016.5 +20.6 +27.5
07 21.08 СЗ 2-2
{2}
50 км н/о +25.2 +17.7 63 +29 +29 душно 1017.3 1016.8
08 21.08 В 2-3
{3}
19 км 9/9 800 м
[]
+28.0 +20.8 65 +35 +36 очень
душно
1017.4 1016.9
09 21.08 В 3-5
{5}
19 км н/о +28.4 +20.4 62 +35 +35 очень
душно
1017.6 1017.1
10 21.08 В 4-6
{6}
19 км н/о +28.1 +21.6 68 +36 +36 очень
душно
1017.7 1017.2
11 21.08 В 4-5
{6}
19 км н/о +28.3 +21.6 67 +36 +36 очень
душно
1017.5 1017.0
12 21.08 ЮВ 3-5
{6}
23 км н/о +28.1 +20.9 65 +35 +35 очень
душно
1017.5 1017.0
13 21.08 ЮВ 3-5
{5}
23 км н/о +28.3 +20.1 61 +35 +35 очень
душно
1017.6 1017.1
14 21.08 ЮВ 3-5
{5}
21 км н/о +28.0 +20.6 64 +35 +35 очень
душно
1017.3 1016.8
15 21.08 ЮВ 3-4
{5}
19 км н/о +28.0 +20.8 65 +35 +35 очень
душно
1017.1 1016.6
17 21.08 ЮВ 2-2
{4}
50 км н/о +26.1 +21.5 76 +33 +33 очень
душно
1016.7 1016.2
18 21.08 Ю 1
{5}
45 км н/о +25.6 +21.5 78 +33 +33 очень
душно
1017.2 1016.7 +22.8 +28.7
19 21.08 ЮЗ 1-1
{2}
35 км н/о +24.5 +21.2 82 +31 +31 очень
душно
1017.6 1017.1
20 21.08 штиль 0-1
{1}
4100 м дымка н/о +23.9 +21.0 84 +30 +30 очень
душно
1017.8 1017.3
21 21.08 С 1-1
{1}
35 км н/о +22.5 +20.6 89 +29 +29 очень
душно
1017.8 1017.3

 

Местоположение метеостанции Йер (Франция): широта 43.10 долгота 6.15 высота над уровнем моря 4 м.

В архиве по умолчанию представлена погода в Йере за последнюю неделю. Архивные данные за месяц целиком и за предыдущие месяцы, начиная с января 2011 года, Вы можете получить, выбрав интересующий диапазон дат из раскрывающегося списка и нажав кнопку "Ввод!".


*Определитесь, кто Вы:
робот инопланетянин человек

Внимание! Время в таблицах - всемирное. Для получения местного времени необходимо прибавить поправку, которая равна 1 ч.

Смотрите также архив погоды в соседних городах и на ближайших метеорологических станциях:

Погода в Тулоне (Франция) (18 км)
Погода на Мысе Кере (Франция) (18 км)
Погода на Острове Леван (Франция) (27 км)
Погода в Ле-Люке (Франция) (36 км)
Погода на Мысе Камара (Франция) (44 км)
Погода в Ла-Сьоте (Франция) (47 км)
Погода в Каннах (Франция) (80 км)
Погода в Мариньяне (Франция) (84 км)
Погода на Ла Куроне (Франция) (93 км)
Погода в Антибе (Франция) (95 км)

Пояснения к столбцам:

Ветер - указаны скорость ветра в м/с - средняя за 10 мин, порывы в срок и между сроками (в фигурных скобках) и направление, откуда дует ветер: С - северный, СВ - северо-восточный, В - восточный, ЮВ - юго-восточный, Ю - южный, ЮЗ - юго-западный, З - западный, СЗ - северо-западный.
Видимость - горизонтальная дальность видимости в метрах или километрах. При видимости от 1 до 10 км при отсутствии осадков обычно наблюдается дымка, при ухудшении видимости до 1 км и менее - туман. В сухую погоду видимость может ухудшаться дымом, пылью или мглою.
Явления - указаны атмосферные явления, наблюдавшиеся в срок или в последний час перед сроком; фигурными скобками обозначены явления, наблюдавшиеся между сроками (за 1-3 часа до срока); квадратными скобками обозначены град или гололедные отложения с указанием их диаметра в мм.
Облачность - указаны через наклонную черту общая и нижняя облачность в баллах и высота нижней границы облаков в метрах; квадратными скобками обозначены формы облаков: Ci - перистые, Cs - перисто-слоистые, Cc - перисто-кучевые, Ac - высококучевые, As - высокослоистые, Sc - слоисто-кучевые, Ns - слоисто-дождевые, Cu - кучевые, Cb - кучево-дождевые. Подробнее классификацию облаков см. в Атласе облаков (PDF).
T - Температура воздуха - температура, измеренная на высоте 2 м над землей.
Td - Температура точки росы - температура, при понижении до которой содержащийся в воздухе водяной пар достигнет насыщения.
f - Относительная влажность воздуха - влажноcть воздуха, измеренная на высоте 2 м над землей.
Te - Эффективная температура - температура, которую ощущает одетый по сезону человек в тени. Характеристика душности погоды. При расчете учитывается влияние влажности воздуха и скорости ветра на теплоощущения человека.
Tes - Эффективная температура на солнце - температура, которую ощущает человек, с поправкой на солнечный нагрев. Характеристика знойности погоды. Зависит от высоты солнца над горизонтом, облачности и скорости ветра. Ночью, в пасмурную погоду, а также при ветре 12 м/с и более поправка равна нулю.
P - Атмосферное давление - приведенное к уровню моря атмосферное давление.
Po - Атмосферное давление - измеренное на уровне метеостанции атмосферное давление.
Tmin - Минимальная температура - минимум температуры воздуха на высоте 2 м над землей.
Tmax - Максимальная температура - максимум температуры воздуха на высоте 2 м над землей.
R - Количество осадков - Количество выпавших осадков за период времени, мм. При наведении курсора мыши на число - период времени, за который выпало указанное количество осадков.
R24 - Количество осадков - Количество выпавших осадков за 24 часа, мм.
S - Снежный покров - Высота снежного покрова, см. При наведении курсора мыши на число - состояние снежного покрова и степень покрытия местности в баллах.